GFSGL_prec_cthk_000.txt.gz
RH
52 69 65 59 62 69 85 84 85 86 89 92 95 89 85 88 86 86 91 93 92 92 91 90 90 88 88 95 91 80 81 80 80 86 86 91 91 93 86 66 67 66 60
52 58 65 61 60 62 67 77 84 87 87 91 96 97 93 89 88 92 94 94 91 90 91 91 92 93 87 89 88 86 84 77 82 85 93 92 89 82 85 71 72 67 59
60 60 59 62 61 61 64 65 67 67 75 87 91 92 95 96 97 95 94 90 90 93 93 93 94 94 93 93 91 82 76 84 86 79 86 90 83 83 84 83 78 73 72
60 59 56 57 60 61 63 64 57 56 61 74 83 91 92 92 93 95 98 99 99 97 97 95 93 94 92 92 94 91 95 93 82 86 90 89 85 84 83 82 81 80 76
56 53 56 54 54 56 61 70 63 57 63 67 65 69 79 87 92 94 94 95 97 98 98 97 96 94 93 94 91 90 88 84 83 87 92 92 94 85 80 77 76 71 76
58 60 55 51 51 52 57 57 61 64 70 75 77 72 72 79 87 92 96 96 97 97 98 98 98 98 96 96 96 95 90 90 90 94 87 89 91 85 85 80 72 69 67
61 58 57 59 55 53 51 60 67 79 80 80 79 78 75 70 66 70 72 77 86 92 94 97 97 97 97 94 91 89 92 91 84 86 86 79 82 78 69 68 70 71 69
61 59 63 63 65 69 73 83 86 81 75 70 68 65 62 66 68 68 73 73 74 69 68 66 62 66 73 76 73 73 73 74 73 70 68 68 68 69 72 73 71 69 69
53 65 72 75 78 71 72 83 81 71 67 64 53 53 56 63 72 74 74 66 62 62 60 59 56 59 64 69 68 74 78 78 72 69 70 69 69 65 61 63 68 70 74
45 59 63 66 71 78 75 75 76 72 79 79 73 64 62 69 81 81 82 84 78 74 68 67 61 59 66 71 74 75 69 70 72 72 73 78 80 84 85 86 85 85 84
54 64 71 71 84 85 81 83 80 85 91 90 86 79 86 89 86 87 88 89 91 87 79 73 69 72 73 70 75 82 86 88 87 88 91 92 91 91 91 90 87 85 82
59 70 80 85 95 94 86 87 88 90 93 95 92 95 97 94 92 95 95 96 95 95 91 91 93 93 94 93 93 92 87 88 93 95 96 95 91 82 69 59 51 47 42
63 70 77 87 87 83 82 91 92 94 95 97 96 95 97 97 99 98 97 98 98 98 97 97 97 97 96 96 94 94 94 93 92 92 91 93 89 79 66 55 46 40 38
67 73 80 82 82 75 76 80 86 89 95 93 92 95 95 93 93 96 97 97 96 97 94 89 80 78 76 72 63 54 41 34 31 28 29 30 30 27 27 27 26 25 24
72 73 72 73 75 76 75 77 79 81 84 84 85 84 82 80 80 78 77 74 70 66 53 40 31 26 26 26 26 24 21 22 22 24 24 24 24 24 22 22 23 24 26
70 68 68 69 69 70 71 73 73 71 70 70 71 71 68 56 41 28 19 17 19 20 24 25 25 25 25 24 25 26 26 26 24 27 29 29 28 27 26 26 28 30 32
72 69 69 69 68 67 67 68 57 45 38 32 29 24 19 16 16 17 17 19 20 22 23 24 24 25 26 27 28 29 31 31 32 35 35 35 34 33 32 33 35 36 38
68 62 60 62 63 58 50 42 34 31 28 28 23 19 16 15 16 17 19 21 24 24 25 26 27 29 32 32 32 31 29 30 33 33 33 36 36 36 35 38 40 41 40
47 47 47 45 44 43 40 38 37 35 31 30 27 24 21 20 20 19 21 23 24 26 27 27 26 27 28 30 30 29 29 34 33 36 40 40 38 38 42 46 45 48 49
52 49 43 36 37 38 42 42 38 36 35 32 29 24 22 24 24 24 25 23 25 25 25 28 29 29 30 30 33 32 35 39 41 42 41 40 40 43 48 50 53 55 57
49 40 39 42 44 39 37 35 33 31 36 31 26 24 23 24 26 25 24 23 24 25 26 27 27 31 33 34 34 35 40 42 45 44 42 43 46 50 53 55 57 65 65
49 48 48 43 42 40 40 37 37 32 33 29 24 16 20 21 25 25 26 27 28 28 29 28 29 30 33 34 35 37 39 46 50 48 43 47 50 57 62 64 62 64 62
54 52 52 49 49 43 33 31 30 31 37 31 29 25 23 25 26 28 30 31 30 30 30 31 33 36 34 34 36 43 50 52 51 49 47 42 49 57 61 63 67 64 57
50 49 44 47 40 39 37 34 33 32 33 30 28 27 26 28 29 30 30 31 30 30 34 31 29 27 26 25 31 44 48 52 54 58 56 44 52 56 56 54 53 52 52
49 45 38 39 40 40 38 39 42 33 29 28 28 27 28 29 30 31 32 30 29 34 32 30 29 28 24 24 30 36 39 39 38 38 41 45 51 58 60 54 48 40 38
39 36 32 34 41 39 40 40 38 35 33 31 29 28 30 31 32 33 31 29 32 34 34 35 35 32 27 25 21 23 29 28 28 28 28 29 36 42 41 35 33 34 42

GFSGL_prec_cthk_003.txt.gz
RH
49 50 51 52 59 59 62 75 80 81 82 84 87 83 81 86 87 91 92 92 92 93 93 96 97 97 93 93 92 93 90 86 85 83 82 86 91 95 91 92 85 82 79
54 51 51 49 49 58 58 57 62 68 81 87 93 91 85 87 88 91 93 93 95 97 93 92 92 93 94 96 95 94 91 86 85 83 83 86 94 90 93 86 80 84 74
53 49 52 54 50 50 59 59 54 58 67 85 92 92 94 95 93 92 90 90 92 93 93 94 92 92 93 93 97 95 92 89 86 83 84 87 88 89 87 85 80 77 74
60 57 54 52 51 49 53 67 61 56 62 64 79 86 90 93 94 95 96 99 98 96 96 96 95 94 95 96 95 91 90 90 89 92 92 93 91 91 90 89 87 84 82
62 60 59 53 53 51 52 56 64 62 65 70 68 64 69 78 88 93 93 95 96 98 98 98 96 96 96 94 94 94 93 93 94 92 91 91 95 93 90 86 80 76 72
69 59 56 56 55 56 57 47 54 62 71 72 75 77 73 69 69 72 78 83 91 96 97 97 98 98 97 97 96 94 93 94 93 93 93 94 96 93 90 94 86 82 78
66 57 60 61 64 60 65 66 65 76 78 75 71 69 69 66 67 68 67 69 71 78 86 94 97 97 97 97 97 96 96 92 91 91 91 94 95 96 95 92 88 82 74
57 58 73 77 73 69 77 74 80 79 72 64 60 57 55 58 63 72 78 78 75 71 70 71 73 75 72 71 74 77 78 77 88 93 95 92 91 89 90 85 82 79 77
48 47 52 65 72 72 79 78 76 68 63 57 57 58 59 61 64 70 77 78 76 76 72 67 61 59 63 71 67 64 63 67 70 71 73 70 68 65 61 59 61 64 63
40 45 54 59 64 70 82 82 77 76 72 72 73 74 70 67 71 83 78 76 79 82 79 75 77 71 62 66 62 69 68 70 71 68 69 72 71 70 76 78 82 85 87
43 50 57 64 72 79 77 83 77 73 77 83 83 84 84 83 86 88 88 86 84 85 86 84 82 79 78 84 90 80 82 84 86 88 88 86 88 90 91 93 93 91 87
52 55 64 77 84 80 87 88 85 77 80 83 88 91 93 95 95 95 95 91 90 88 89 90 90 92 93 93 94 95 93 90 91 92 91 90 87 89 89 91 88 84 72
56 62 61 78 82 89 88 89 85 72 73 83 89 94 94 94 96 95 96 93 91 94 97 98 98 97 93 91 91 88 85 83 81 77 69 53 41 37 39 38 41 48 48
63 62 66 91 92 87 83 80 68 73 74 78 86 87 94 94 92 90 90 90 91 89 90 90 86 77 58 48 39 30 26 23 24 26 27 27 25 24 21 20 19 20 21
66 66 69 75 79 72 69 73 72 72 73 75 79 83 85 84 84 82 78 64 50 41 37 31 25 22 21 20 20 19 21 22 23 23 23 24 25 25 25 25 24 25 25
68 69 69 71 70 69 69 69 69 66 62 63 64 63 63 57 40 29 24 22 20 20 21 22 21 20 21 22 25 25 26 24 25 27 28 29 30 30 30 30 31 32 33
66 65 66 63 62 60 61 62 64 57 45 37 29 24 21 19 17 18 20 20 19 19 19 21 22 24 24 25 25 25 24 24 26 30 32 31 31 32 33 33 35 38 41
60 61 62 63 62 61 60 51 46 35 27 23 18 15 15 16 17 19 20 20 20 20 20 20 21 24 25 26 26 26 24 24 27 31 32 32 34 34 34 36 40 42 43
54 47 45 39 35 36 35 32 31 28 26 24 21 18 17 16 17 19 21 21 21 21 20 21 22 21 23 23 22 23 27 28 30 32 32 32 32 32 36 41 45 50 56
49 48 45 41 39 38 37 35 34 33 29 25 23 20 20 21 21 21 21 21 21 21 22 23 22 23 24 25 25 25 28 29 32 33 33 34 34 36 40 45 50 57 65
57 53 49 43 41 40 36 37 36 33 30 30 26 22 22 23 22 22 21 21 23 23 24 24 25 25 26 26 26 27 29 31 35 38 41 32 36 40 46 53 59 66 70
60 54 51 46 47 43 40 38 41 40 28 27 18 15 21 21 22 22 23 25 26 26 25 24 25 26 28 28 27 27 30 35 41 41 43 40 35 47 54 59 67 82 76
60 55 52 50 43 45 46 39 31 29 29 28 24 22 21 23 22 24 26 27 27 26 25 27 28 27 28 28 25 25 31 39 44 46 47 52 41 48 55 60 66 67 69
68 62 50 46 48 41 35 32 31 29 30 29 25 23 23 23 25 26 26 27 25 27 29 27 25 24 22 19 18 22 30 37 39 40 41 41 45 56 57 61 54 51 49
41 49 54 42 38 37 37 35 32 33 33 31 27 25 24 24 25 25 26 27 26 30 30 29 28 28 22 16 15 13 14 21 27 27 27 30 40 51 53 55 54 45 46
40 41 36 34 37 41 41 41 39 35 32 29 27 26 25 25 25 25 27 27 29 29 30 30 30 28 26 26 28 21 16 16 21 25 24 21 28 33 33 33 29 36 47

GFSGL_prec_cthk_006.txt.gz
RH
51 48 47 45 47 50 53 55 65 78 85 89 90 84 82 83 85 87 86 87 90 88 90 93 89 93 94 95 94 95 93 95 95 90 88 87 86 87 88 91 93 92 88
50 50 51 50 46 44 54 54 57 66 85 92 92 90 85 87 88 91 94 95 95 96 97 97 98 98 99 98 97 95 95 96 97 91 89 89 89 92 92 95 91 87 87
56 55 54 52 49 46 46 62 52 59 65 88 92 92 90 90 92 94 93 93 93 96 97 96 94 94 95 97 97 97 97 97 97 95 92 90 92 94 92 88 81 87 85
63 60 56 52 50 50 46 50 61 59 62 63 74 86 90 92 94 94 94 95 96 96 97 97 97 98 97 98 98 97 97 98 95 92 93 93 93 93 91 92 91 91 87
68 64 59 55 52 57 53 49 46 53 61 66 67 61 66 74 82 88 92 96 98 99 99 99 99 99 99 99 98 97 97 96 95 92 93 95 96 95 94 93 94 93 91
69 68 63 58 62 60 59 59 53 54 64 68 67 66 66 63 61 66 68 75 82 89 94 97 98 98 98 97 97 97 96 95 95 95 95 94 94 95 97 98 95 90 85
66 64 56 57 70 65 61 66 66 71 72 68 63 59 55 55 58 62 66 69 69 71 73 77 89 95 97 98 98 98 97 97 96 94 92 93 94 95 96 96 96 96 96
64 63 56 50 52 60 68 71 72 70 66 56 51 50 53 58 58 64 69 72 74 77 80 77 74 73 77 76 71 70 73 77 81 89 94 95 96 95 97 94 95 96 95
62 60 53 50 55 57 64 69 75 71 65 62 57 60 62 63 64 65 71 69 73 74 75 75 73 71 70 68 69 67 67 59 59 62 67 74 75 76 80 81 83 83 81
52 55 55 52 53 59 64 78 79 77 71 67 67 72 74 72 73 73 75 80 78 77 78 76 75 77 73 74 73 68 69 71 71 74 80 76 74 74 76 80 82 80 79
53 50 53 55 56 61 72 82 85 80 74 71 71 72 77 82 83 87 86 87 86 84 84 84 87 88 87 85 83 88 90 89 89 91 90 90 91 92 93 93 93 93 94
55 57 61 61 71 77 86 86 91 87 82 77 73 69 75 85 86 92 92 89 88 86 86 84 84 88 90 93 95 95 92 92 93 91 88 89 91 91 88 81 74 70 66
59 62 60 62 69 88 89 84 97 92 83 83 70 73 78 80 90 91 93 95 90 86 86 88 90 89 90 89 86 82 74 79 73 69 64 54 42 42 37 31 25 20 20
62 71 65 69 76 96 91 99 93 89 82 71 71 76 79 85 87 90 90 87 87 83 77 72 68 62 58 54 43 26 20 18 17 18 19 21 20 20 20 20 19 20 20
72 74 72 76 84 93 92 89 85 77 70 70 74 77 80 84 85 86 85 74 57 44 35 28 23 19 17 16 17 17 18 19 20 22 23 25 26 26 25 24 24 25 26
80 79 76 74 73 77 81 73 65 65 69 69 68 65 64 62 54 42 33 24 20 18 18 17 18 18 18 19 20 20 21 22 23 23 25 27 27 26 26 26 28 29 31
74 72 68 68 66 64 62 63 65 65 61 47 36 29 24 20 19 18 18 17 17 18 18 19 19 20 21 22 22 22 22 21 23 26 27 27 26 28 28 28 31 34 36
62 62 61 63 63 64 65 62 54 42 33 22 19 17 15 17 18 17 17 18 19 19 18 17 18 20 22 22 21 21 20 21 22 24 25 26 27 28 28 30 34 37 42
54 48 47 47 43 39 34 33 30 28 25 20 17 18 19 18 18 19 20 19 19 19 19 18 18 18 20 19 19 19 21 22 24 24 25 26 27 27 29 33 38 43 50
48 46 43 43 43 40 36 33 30 28 27 28 23 18 18 21 21 19 19 19 20 19 19 19 19 20 21 21 20 21 20 22 24 26 30 32 26 31 33 36 42 49 56
54 54 52 53 48 43 38 34 31 32 31 28 25 25 23 20 21 22 22 21 21 21 21 20 21 20 20 21 21 20 20 23 26 31 37 36 33 30 38 44 51 55 66
62 61 57 55 51 49 46 40 37 38 37 33 16 16 20 21 22 22 21 22 22 22 21 20 21 21 21 21 21 21 21 24 30 34 39 43 45 37 42 50 53 58 65
68 65 59 61 58 55 51 49 42 36 28 24 21 20 21 22 22 23 23 23 23 22 20 20 21 21 23 24 24 22 21 24 29 33 35 35 39 41 47 49 51 46 51
73 65 60 59 60 52 46 44 31 28 26 28 27 26 24 23 23 24 24 24 23 21 22 22 23 26 25 22 16 16 17 17 18 21 24 25 33 43 50 53 48 42 41
56 42 42 48 51 46 41 38 35 31 30 30 30 28 26 25 25 25 24 24 24 22 24 25 26 27 26 20 22 20 16 14 15 15 16 18 22 32 41 41 40 39 44
54 48 47 47 49 45 38 34 34 36 37 34 32 31 29 27 27 26 25 24 25 26 27 28 30 31 29 27 30 33 31 26 24 24 21 17 20 25 28 31 31 39 48

GFSGL_prec_cthk_009.txt.gz
RH
57 51 51 51 49 45 52 53 56 71 85 87 86 81 79 80 79 78 77 75 74 76 79 82 84 90 91 94 93 95 93 92 90 90 88 87 92 94 94 89 89 86 87
54 54 52 50 50 46 47 58 56 58 80 93 89 87 85 84 87 88 88 86 86 88 90 90 92 97 94 95 96 98 97 93 93 95 96 94 92 95 94 95 96 94 90
60 61 58 51 49 51 46 49 56 62 64 82 87 91 87 88 91 92 95 97 98 98 98 98 99 98 98 98 95 98 98 96 96 96 97 98 96 96 95 93 90 90 89
67 66 62 53 51 54 54 48 44 57 64 63 66 81 89 90 92 93 92 93 94 95 95 96 97 97 96 96 97 97 97 98 98 98 98 97 96 96 96 94 92 90 90
70 66 62 49 58 59 61 58 52 52 61 66 64 63 60 64 74 81 87 92 94 96 98 98 97 97 98 98 98 98 97 96 96 97 96 97 96 98 96 98 96 96 97
70 69 61 54 47 59 66 60 64 62 61 66 66 62 59 60 61 62 64 67 72 82 94 98 98 99 99 99 99 99 97 97 97 97 97 96 98 96 96 96 97 98 97
68 68 67 60 50 51 58 65 66 68 67 65 61 53 48 51 54 58 62 67 67 70 70 71 71 79 91 96 98 97 97 97 96 94 94 96 97 95 95 97 98 98 97
63 63 65 61 56 54 60 66 70 73 69 59 55 53 55 58 62 61 61 65 67 74 77 79 76 78 78 77 74 73 73 69 73 77 83 86 89 90 94 95 97 95 96
57 61 66 64 60 57 61 65 69 70 67 62 63 61 61 64 65 66 66 66 71 71 72 73 72 71 69 66 67 66 66 69 73 71 70 72 70 78 83 79 87 93 92
46 58 63 61 59 57 66 64 74 78 76 69 67 68 68 67 70 71 74 75 73 79 81 80 75 76 76 75 73 69 70 71 74 74 75 76 82 78 75 75 74 76 75
43 56 62 62 59 64 62 68 81 86 82 73 75 72 75 71 66 71 77 83 85 85 85 87 85 85 84 84 83 82 83 87 91 89 88 89 91 90 89 88 88 88 88
48 56 60 64 70 72 72 71 84 88 91 87 83 82 77 70 72 76 79 85 87 90 89 89 88 87 87 89 87 88 88 88 89 89 86 87 86 82 76 71 65 58 59
55 61 63 72 80 71 73 87 98 91 96 93 91 84 76 72 79 77 83 84 84 89 89 87 84 82 77 76 73 70 69 58 47 35 30 27 21 18 17 16 16 16 16
62 63 70 74 83 87 80 94 100 97 95 96 88 81 77 75 76 81 84 86 86 87 81 65 58 52 46 37 24 18 16 15 16 16 17 18 19 20 20 20 20 21 21
70 73 72 73 73 81 93 94 95 91 93 86 82 74 77 76 80 86 85 83 64 48 42 34 26 19 16 15 15 16 16 17 18 19 20 21 22 22 21 20 22 23 24
75 76 79 81 84 85 86 84 84 94 93 86 80 77 75 70 68 63 50 37 27 19 16 15 15 16 17 18 18 18 19 18 20 21 22 22 21 21 21 22 23 25 26
75 75 74 74 72 72 70 68 68 65 66 66 60 52 43 35 30 22 17 16 15 15 16 17 18 18 19 19 19 20 19 18 19 21 22 23 23 22 22 23 25 27 30
61 57 58 60 61 61 60 60 58 55 47 38 32 24 22 19 17 18 17 16 16 17 16 17 18 19 18 17 17 18 18 18 19 19 20 20 19 19 22 24 26 29 34
49 47 44 44 46 46 42 38 34 32 28 24 22 19 19 20 19 18 18 19 18 17 18 19 18 18 17 17 16 17 17 18 18 19 21 22 22 20 25 28 31 33 38
42 41 45 45 44 43 42 42 37 34 31 27 20 19 20 20 18 19 21 18 19 20 21 20 19 19 19 17 16 15 16 17 18 21 24 27 27 25 27 31 33 37 44
49 52 53 53 52 51 50 47 40 36 33 28 24 22 21 24 26 20 18 20 21 21 20 19 19 18 17 17 18 18 16 18 20 24 27 29 33 36 33 33 39 43 46
61 64 62 59 55 53 52 45 44 39 36 30 28 29 30 24 18 20 21 23 22 21 20 18 17 17 17 18 19 19 17 17 20 23 25 26 28 36 34 40 43 45 43
68 64 61 58 56 59 59 54 53 54 50 49 35 20 17 18 20 22 23 23 22 22 19 19 19 18 18 19 19 17 16 16 18 20 19 18 22 32 38 42 44 38 43
78 75 67 66 63 60 56 57 52 47 38 29 27 24 24 24 24 24 23 22 22 21 19 21 21 20 21 22 16 13 14 15 16 17 14 13 15 21 32 42 43 40 40
81 71 58 52 47 47 54 52 48 44 40 31 30 34 32 29 27 27 26 25 23 21 20 21 21 22 24 22 19 21 20 19 19 19 18 14 14 17 22 24 25 29 36
66 58 52 50 49 52 58 55 47 41 37 38 40 38 33 31 30 29 28 27 26 24 23 24 24 25 28 29 25 27 29 30 27 26 27 23 17 20 24 29 31 35 41

GFSGL_prec_cthk_015.txt.gz
RH
54 53 55 54 50 47 49 44 45 61 63 80 87 87 84 83 80 76 76 76 75 69 64 58 57 62 66 77 83 82 81 78 81 88 89 93 94 94 96 98 98 96 93
54 60 59 57 49 52 54 54 44 51 61 65 84 89 87 87 85 87 85 81 76 72 69 68 69 72 70 74 80 84 91 93 96 99 98 99 95 98 99 99 99 98 98
57 65 65 61 56 48 54 57 52 50 54 64 64 74 85 90 91 93 93 93 93 92 91 89 87 88 91 96 97 97 97 97 97 96 96 99 97 97 98 99 98 97 97
58 67 67 65 64 57 53 50 56 58 56 63 64 65 66 68 73 82 88 91 96 95 94 95 96 98 98 96 98 97 98 98 98 98 97 99 98 99 99 97 99 97 96
61 65 69 72 74 69 55 50 50 59 58 55 60 56 55 54 57 61 64 66 68 72 77 89 97 98 98 97 97 98 99 99 98 98 97 97 97 97 98 98 97 97 98
59 62 68 73 76 73 63 53 55 59 63 56 54 56 55 53 54 56 59 61 62 64 68 67 74 78 82 88 94 94 95 97 97 97 98 97 98 98 98 99 97 94 96
61 58 60 65 73 75 70 60 60 59 63 60 58 57 57 58 55 57 61 64 65 64 67 68 70 72 74 72 72 75 78 78 85 86 83 83 85 80 80 80 80 84 87
64 60 60 64 70 72 73 65 59 57 60 61 57 58 65 63 62 62 63 61 60 65 65 65 67 66 67 69 72 71 68 69 70 70 66 68 76 82 79 82 82 83 87
59 54 53 55 56 58 66 67 61 57 61 63 64 64 72 70 69 65 66 67 61 55 57 65 66 65 67 67 71 72 71 70 71 71 72 71 71 73 72 74 77 81 82
46 47 50 52 51 56 64 68 64 61 65 68 71 73 75 74 74 78 73 69 69 65 63 64 64 69 72 75 79 81 82 79 78 78 77 77 77 77 78 78 80 80 80
45 47 50 50 55 58 62 67 69 71 66 67 78 79 78 81 84 84 76 74 70 70 72 75 77 79 79 81 83 82 82 82 81 74 72 72 69 63 49 39 35 34 35
42 44 44 48 60 63 63 68 80 78 69 74 77 82 88 87 91 85 81 77 74 72 76 78 79 78 77 74 76 69 62 54 46 35 26 18 14 12 12 12 12 13 13
45 44 46 54 61 62 69 72 79 89 84 90 90 94 96 92 93 91 84 83 81 76 76 77 80 77 62 50 43 34 28 21 14 13 14 15 14 13 14 15 14 14 14
47 50 53 59 60 65 76 77 83 80 89 88 89 88 95 93 89 83 85 90 88 83 80 71 44 37 31 24 16 12 12 14 16 17 17 16 15 15 15 16 16 17 23
53 53 59 62 65 69 74 77 85 89 89 91 91 95 96 92 87 83 79 82 79 74 61 39 33 22 18 15 12 14 17 18 17 17 16 16 15 14 14 15 15 19 20
51 55 61 65 68 70 74 80 85 88 90 91 90 94 91 82 81 77 68 65 58 45 31 24 20 18 17 15 18 19 18 17 17 17 15 13 12 13 15 18 19 22 23
55 59 61 64 65 64 70 74 78 77 82 82 80 82 80 78 70 62 50 36 26 21 21 20 19 16 15 17 19 17 18 17 15 15 13 13 13 15 18 20 24 25 26
49 48 50 50 48 48 49 50 51 55 59 61 62 55 47 40 32 28 25 22 20 19 19 18 16 16 19 22 18 18 18 16 15 15 14 15 14 14 18 21 24 26 28
46 47 45 41 35 34 34 32 30 28 26 26 28 28 27 27 28 27 25 25 21 20 21 20 21 22 24 17 16 17 17 16 15 15 16 16 17 17 18 20 25 22 26
44 41 37 36 37 39 40 40 40 38 34 34 35 34 33 31 32 31 25 23 27 29 26 27 26 19 17 17 18 17 16 14 15 16 17 17 17 17 20 21 26 29 33
38 38 40 43 46 46 46 48 49 49 45 39 38 37 37 36 36 36 38 37 36 34 34 26 19 19 20 18 18 17 15 14 14 16 17 18 17 18 20 22 25 29 32
50 51 53 53 51 52 53 53 51 52 52 49 44 40 40 40 42 42 40 40 34 21 19 20 24 23 20 19 17 17 17 16 15 16 17 19 18 17 19 22 23 28 30
57 59 60 56 56 59 62 63 61 60 58 53 46 40 37 34 32 31 30 27 27 28 28 27 20 18 17 17 16 16 16 17 19 17 18 20 19 17 18 21 25 28 28
76 73 73 74 74 70 71 61 55 52 48 44 43 43 45 46 37 27 25 27 33 31 27 22 17 18 19 17 17 15 14 13 14 17 18 22 21 17 18 20 21 24 26
80 78 79 78 69 62 55 56 63 62 59 58 58 57 51 49 47 46 43 36 31 29 26 25 23 20 19 19 20 20 17 18 17 17 17 19 21 20 21 21 23 26 27
81 76 78 79 74 72 67 55 55 56 56 56 52 50 54 56 51 47 42 39 35 33 32 30 27 25 23 23 24 25 25 22 23 23 21 21 22 24 24 27 27 26 29

GFSGL_prec_cthk_021.txt.gz
RH
52 47 54 56 59 58 57 49 47 49 47 56 64 74 77 80 80 87 78 69 73 82 78 77 75 77 79 76 69 70 69 76 84 93 95 96 94 93 91 91 89 87 88
49 52 54 59 64 61 62 51 46 50 52 54 59 63 73 79 81 79 79 80 78 75 68 67 69 69 71 68 62 62 67 70 77 82 90 90 87 89 94 94 96 99 98
53 55 54 64 66 63 61 53 48 49 54 51 54 54 53 56 60 66 71 74 71 84 88 90 89 82 71 68 67 70 72 75 76 80 90 93 95 96 98 98 96 96 96
59 57 59 60 62 59 61 57 54 50 50 50 47 50 50 51 50 53 53 54 56 58 61 62 70 82 88 88 86 87 88 86 88 90 94 96 97 98 96 96 96 95 94
56 58 60 57 57 55 59 57 57 55 49 49 48 52 56 53 50 49 49 52 53 54 54 59 61 64 73 79 85 88 87 88 92 93 93 93 91 92 96 97 95 82 81
64 69 68 63 62 57 58 56 55 53 49 44 48 52 55 53 54 51 54 54 54 52 52 55 59 60 61 65 70 72 70 74 76 76 78 81 81 83 80 81 78 79 82
70 69 68 62 61 57 59 58 49 50 53 47 44 52 54 54 56 58 58 59 61 58 56 54 54 56 62 64 65 64 65 69 72 71 72 73 74 77 74 74 76 76 77
66 62 57 56 58 56 57 56 51 49 56 53 50 51 54 58 61 62 63 64 63 67 62 58 57 54 54 53 53 55 57 59 60 62 68 72 76 75 77 80 80 79 80
58 52 52 52 51 51 53 54 60 57 57 58 56 60 56 57 63 65 70 71 72 71 62 62 64 61 59 60 61 60 63 68 69 70 72 73 73 74 76 78 78 75 68
54 48 46 45 44 45 48 53 53 66 65 59 60 62 62 65 67 72 76 79 76 75 73 72 70 69 68 72 73 72 71 74 76 74 67 69 69 61 59 60 57 54 49
55 51 45 42 40 44 48 48 56 72 64 64 65 70 68 68 75 80 82 85 85 85 83 80 76 77 77 75 75 76 68 69 66 57 45 34 25 22 17 14 13 20 26
54 51 47 44 41 43 49 52 58 70 74 70 74 76 75 80 81 83 86 84 87 87 83 82 80 76 74 71 71 66 55 47 47 36 28 22 20 19 16 16 11 11 16
54 55 50 42 44 50 53 59 63 75 80 74 84 84 88 89 90 84 86 87 90 92 92 89 83 73 67 46 35 35 35 35 29 26 21 18 19 15 18 20 19 19 19
55 51 47 46 45 47 53 61 65 73 77 79 82 85 83 90 91 85 90 89 89 87 87 85 73 64 60 33 24 26 27 26 24 21 18 19 20 20 20 20 22 25 29
47 44 41 44 48 52 55 58 61 65 71 76 83 79 83 83 86 86 89 82 81 82 76 72 64 58 43 33 30 28 27 23 21 19 19 20 20 24 23 21 20 24 26
44 46 47 51 55 57 57 59 62 67 70 73 74 75 82 84 83 83 84 81 78 67 61 60 51 38 34 33 30 26 23 20 20 19 19 20 23 24 22 21 20 23 27
50 54 56 58 57 56 56 58 61 66 68 70 73 76 78 79 80 80 75 61 49 41 34 38 38 37 35 28 24 25 26 21 16 21 25 25 19 22 25 24 21 26 28
57 57 54 50 49 48 49 49 49 51 54 59 62 64 64 61 55 47 40 34 33 30 31 37 38 34 29 27 26 24 22 22 25 26 25 21 23 29 21 21 23 26 28
49 47 43 40 35 31 29 29 31 32 36 38 33 32 32 34 33 31 30 34 42 42 39 38 35 33 32 31 27 24 26 29 33 30 21 26 25 21 23 20 24 20 17
46 39 39 37 37 40 41 43 42 40 42 45 45 46 40 34 34 35 35 41 46 44 40 39 40 36 35 32 33 33 32 30 25 20 25 31 22 20 21 25 26 27 28
44 42 42 46 48 49 49 48 46 45 44 44 47 43 41 43 50 52 51 51 51 48 46 46 44 50 48 49 47 40 33 28 32 32 33 29 25 22 25 22 25 27 28
50 50 52 57 56 56 54 53 55 55 54 47 44 39 31 34 44 45 44 43 42 42 40 37 35 35 34 32 34 28 32 35 34 30 29 29 29 27 25 24 25 28 28
56 58 63 67 68 68 69 69 67 60 59 58 58 56 53 46 42 40 43 45 49 53 55 49 42 35 31 30 34 35 28 31 30 29 30 30 30 30 28 28 25 28 29
67 72 74 74 73 73 72 74 74 72 73 72 73 73 70 65 60 58 58 54 55 55 51 48 48 45 41 35 29 29 26 26 27 28 28 28 30 30 28 26 24 27 29
75 78 77 75 75 75 76 78 78 77 77 80 79 77 72 72 71 68 65 62 59 57 56 56 53 48 44 41 34 30 27 26 25 23 18 20 23 26 29 30 28 28 30
76 80 78 79 78 81 83 84 83 83 83 80 76 75 73 67 63 67 65 63 60 61 59 52 50 49 48 46 46 45 40 32 28 25 22 21 22 24 27 27 27 28 31

GFSGL_prec_cthk_024.txt.gz
RH
53 55 53 60 61 60 63 55 48 46 51 52 54 59 70 76 78 78 78 76 73 75 76 79 81 83 83 84 81 76 72 74 73 73 79 82 86 89 88 86 84 84 90
56 55 60 58 62 62 62 56 49 47 52 50 51 50 52 59 62 66 71 79 75 77 75 70 64 64 69 75 78 76 72 71 73 69 77 78 78 81 85 83 83 91 90
57 63 62 60 59 53 54 55 50 52 48 48 44 45 46 49 52 54 54 56 57 60 69 71 71 74 79 71 69 67 64 67 71 79 84 84 87 91 91 91 94 90 88
62 59 59 60 63 56 57 57 50 51 52 43 49 49 51 51 49 50 49 51 52 53 55 58 59 58 62 72 80 78 81 84 83 85 90 90 93 91 92 90 90 92 91
63 64 68 68 65 67 60 60 57 48 47 45 47 53 52 51 51 52 52 52 52 52 52 54 57 59 63 66 69 71 72 74 71 76 83 84 78 80 78 81 87 88 88
70 72 73 68 74 71 65 58 59 52 42 51 47 44 50 51 53 55 56 56 57 59 55 53 54 56 58 61 63 65 65 68 69 72 74 74 75 74 74 73 72 73 74
72 72 70 68 68 67 73 56 55 52 50 46 51 47 46 50 54 56 59 60 60 61 62 60 56 58 57 56 56 57 57 59 61 62 64 64 64 66 67 70 70 72 76
65 59 54 57 60 63 65 60 55 55 53 50 50 49 49 50 52 55 61 62 65 63 62 61 60 58 58 56 57 57 57 58 58 60 64 68 70 71 72 73 71 74 73
64 57 53 54 58 56 55 55 57 51 52 60 57 55 51 54 55 59 62 65 68 68 68 67 66 66 67 67 66 67 67 66 67 68 70 71 71 70 72 69 72 69 68
67 61 55 51 48 51 56 50 52 52 52 64 61 56 57 58 58 62 68 67 70 71 74 74 72 74 76 77 77 73 70 71 63 65 68 66 56 58 53 51 48 47 40
61 56 57 52 51 50 51 49 55 53 58 65 62 61 64 69 66 68 72 74 75 75 73 75 78 77 78 78 76 71 69 66 54 51 49 46 35 23 16 17 21 23 24
56 55 51 53 55 49 48 51 57 59 59 69 76 81 73 80 76 81 82 78 77 76 78 81 82 82 81 80 73 55 46 46 43 42 38 29 26 22 15 12 11 10 20
53 51 54 51 46 44 45 46 55 58 63 68 76 79 77 82 81 83 81 82 84 86 81 82 81 75 69 59 52 44 30 31 31 31 29 25 21 17 17 18 19 20 21
49 47 45 43 41 42 46 51 57 62 63 68 73 73 75 83 82 77 77 80 80 78 82 78 74 70 63 55 46 32 27 29 28 28 26 22 19 17 18 19 21 24 32
49 42 40 42 45 48 51 53 55 57 60 63 66 70 74 79 83 74 77 78 77 74 70 66 62 57 54 48 34 32 33 30 29 26 23 19 18 18 19 20 27 30 31
56 45 46 48 50 52 52 52 54 55 57 62 65 68 69 74 75 80 79 76 75 69 58 51 45 40 36 36 36 37 34 28 25 22 20 18 17 17 20 27 26 27 32
53 54 52 53 52 49 49 47 47 51 55 58 61 64 67 69 71 71 70 65 53 44 42 40 43 42 40 36 32 33 35 30 27 23 21 20 17 18 22 27 26 32 32
54 54 55 52 49 47 43 39 37 36 32 30 37 40 44 46 47 47 44 39 38 38 39 42 45 44 40 37 34 33 34 32 26 27 23 19 19 23 26 23 33 28 25
51 50 46 43 39 36 34 37 40 38 38 37 36 33 32 31 32 32 32 34 39 46 47 45 44 42 39 34 34 32 32 27 25 26 27 27 38 34 30 32 25 23 22
51 45 42 42 42 44 45 45 43 41 43 44 47 45 38 36 39 40 35 35 42 45 47 48 47 46 41 42 42 45 47 48 51 41 32 34 30 24 24 33 27 25 27
47 48 47 48 48 48 48 47 46 48 47 45 45 40 34 33 42 45 47 47 47 47 48 46 41 40 40 36 33 33 32 34 40 38 35 37 42 37 31 28 24 24 27
52 50 52 53 52 55 56 58 61 60 58 55 51 51 51 51 40 44 47 46 47 44 44 43 46 50 48 49 48 48 40 38 36 46 40 34 35 37 31 26 26 25 27
54 54 56 59 62 66 70 68 70 68 65 66 67 65 66 62 54 49 50 49 47 48 50 49 48 48 46 44 42 41 38 38 37 38 40 32 30 31 30 29 27 28 27
59 61 66 69 71 72 70 69 68 68 71 74 75 76 76 75 74 73 71 68 64 57 55 49 45 47 49 47 47 45 41 35 30 29 27 25 23 23 27 29 29 28 28
72 74 73 73 74 74 74 75 75 78 82 81 81 83 78 77 77 76 69 68 65 67 66 63 62 58 56 52 45 45 44 46 42 37 33 30 28 22 21 22 26 30 30
79 79 76 79 78 79 79 80 83 84 84 86 82 81 77 74 70 64 60 57 56 57 54 52 50 54 64 66 58 58 55 45 51 59 60 56 46 36 31 28 26 26 27

GFSGL_prec_cthk_027.txt.gz
RH
48 49 55 56 56 55 51 52 53 48 47 48 49 48 53 55 60 63 68 74 73 71 69 71 77 83 88 88 88 89 86 80 75 78 81 83 82 86 91 85 86 90 91
51 52 55 57 53 51 52 50 51 48 48 44 43 42 43 45 46 49 49 49 52 65 72 71 68 67 66 70 78 80 81 78 79 83 85 83 81 87 86 88 93 93 91
55 54 52 59 61 55 53 52 55 46 46 45 45 46 47 47 44 44 44 44 44 46 48 51 54 54 63 71 65 63 69 68 66 70 78 86 89 90 94 94 93 92 92
55 56 60 61 63 62 58 56 58 52 42 47 47 45 46 45 44 45 45 46 46 46 46 47 51 52 54 58 61 68 72 70 77 79 80 79 79 83 81 86 84 82 88
63 66 69 72 68 67 71 66 54 52 47 41 45 45 43 48 48 49 50 49 50 52 52 49 47 49 51 53 60 62 64 68 71 68 69 75 76 77 78 78 77 77 76
69 72 64 68 65 73 70 72 64 51 53 49 43 47 45 45 50 53 53 55 58 55 53 52 51 51 52 52 53 55 57 58 60 64 66 69 72 74 75 71 70 70 71
68 63 60 59 63 62 67 67 68 56 55 51 48 47 46 48 50 52 55 55 59 61 58 56 54 55 54 52 53 52 54 55 54 54 57 57 61 63 67 70 72 74 74
70 69 64 63 64 65 60 58 61 59 56 49 54 54 50 50 54 56 57 60 59 59 61 60 58 57 57 57 57 57 60 60 61 61 62 63 67 68 69 72 73 72 71
66 71 70 64 63 60 57 57 56 53 54 52 58 61 55 54 58 58 60 63 62 68 64 65 63 64 66 68 67 66 66 65 64 64 60 63 65 66 66 68 71 67 65
68 72 67 57 57 58 57 57 51 57 57 54 59 62 60 64 65 68 66 66 71 70 68 67 68 68 69 73 73 72 69 66 67 61 52 52 53 48 46 44 38 37 34
68 65 57 55 51 57 56 52 52 52 56 63 63 67 67 69 73 74 74 71 74 74 74 75 74 73 73 75 72 70 65 58 50 48 46 44 44 32 20 22 30 29 29
62 61 54 49 49 48 47 47 49 52 56 61 66 67 73 74 76 73 78 76 72 70 74 72 71 70 70 69 68 62 56 50 40 36 34 32 29 24 21 21 18 15 16
63 57 51 45 45 44 42 47 52 56 56 63 62 67 74 71 71 74 78 77 77 73 71 70 69 66 67 60 59 55 44 38 30 31 30 28 26 24 23 21 18 18 20
59 58 56 47 42 43 46 51 54 58 58 62 62 64 71 71 68 71 72 75 74 71 71 70 65 62 59 54 49 44 40 31 30 31 30 29 26 25 21 18 17 19 22
61 58 55 53 50 48 49 52 55 56 57 58 59 61 65 65 67 69 68 71 73 73 69 64 56 51 46 44 40 33 28 26 26 27 29 28 24 20 19 18 18 21 22
62 56 49 51 55 52 51 52 53 53 55 56 57 60 62 63 65 68 69 70 69 65 57 51 49 43 39 38 40 41 37 33 32 32 29 26 22 20 19 19 18 21 25
63 57 50 45 45 45 45 43 41 44 47 50 52 54 54 53 53 54 53 53 52 46 48 46 45 47 46 44 41 39 39 40 38 35 32 28 27 24 17 20 20 21 26
57 55 54 50 47 41 40 40 37 34 33 31 29 30 31 37 41 43 44 40 41 43 42 44 44 42 42 43 42 41 39 35 35 32 32 31 28 25 24 27 34 34 36
57 54 49 45 42 40 41 42 42 39 37 36 35 32 30 29 29 28 29 31 38 41 43 44 45 44 45 44 40 39 39 40 43 44 45 50 42 37 37 44 43 35 36
57 50 49 50 48 48 48 43 38 36 37 38 37 36 36 33 36 38 38 38 38 39 39 41 40 40 38 37 36 38 36 33 31 36 38 38 39 37 36 34 34 34 34
52 52 54 55 54 51 46 45 47 47 47 48 49 49 50 50 47 46 47 49 45 41 41 41 43 44 45 47 47 46 41 40 43 45 46 41 46 49 47 36 32 34 36
59 59 59 59 55 54 54 56 59 60 60 56 58 59 59 60 58 54 52 49 48 49 50 49 50 48 48 46 44 43 43 42 38 38 42 43 42 41 41 40 34 30 30
63 61 60 60 62 62 64 64 68 66 66 64 65 66 66 68 69 68 69 68 67 64 61 59 56 55 55 56 55 50 44 41 40 35 30 29 31 32 31 30 29 30 29
67 65 63 64 67 69 72 72 74 71 71 75 74 75 77 77 76 76 73 70 66 64 68 60 61 59 49 52 51 50 53 48 42 41 42 38 33 30 27 25 22 26 29
68 68 69 71 72 71 75 78 76 77 80 80 82 82 81 80 79 73 66 64 60 55 59 54 54 54 53 51 50 52 63 67 62 63 57 50 49 54 55 51 41 26 26
73 71 79 80 78 79 82 84 84 82 83 79 77 78 76 63 55 50 47 46 47 47 48 51 52 54 58 59 60 57 58 63 68 75 75 77 79 70 71 67 68 64 51

GFSGL_prec_cthk_030.txt.gz
RH
62 51 59 55 49 50 47 42 44 41 40 40 40 40 44 47 49 51 51 52 59 66 67 67 75 80 84 87 89 91 94 94 90 86 82 79 81 86 84 82 81 82 82
59 54 56 55 55 50 47 46 45 38 40 41 45 44 46 47 47 45 44 44 45 47 58 67 66 62 61 66 71 79 83 86 85 84 83 85 82 76 77 80 86 90 91
58 55 56 59 60 59 55 46 48 45 36 44 44 44 44 45 44 44 43 44 45 44 45 47 49 50 51 58 64 62 63 67 71 70 75 82 85 85 83 84 82 83 86
61 60 62 65 65 67 70 63 51 46 41 37 43 41 42 44 46 46 46 47 47 47 48 48 48 49 53 55 58 60 63 67 69 72 75 79 78 75 80 79 77 78 77
65 65 63 63 66 73 74 67 63 50 45 43 40 45 43 45 48 47 47 49 50 50 48 48 48 50 51 51 55 57 60 62 65 69 71 69 71 75 77 78 79 78 74
74 68 58 58 63 68 70 69 64 59 53 44 43 44 45 45 47 47 48 50 52 53 52 52 51 50 52 52 53 54 55 55 56 60 64 68 72 74 76 76 72 67 70
74 73 68 63 64 67 64 63 60 58 56 52 43 49 48 45 47 49 49 50 51 51 53 54 53 51 52 53 55 56 57 58 59 60 61 63 65 66 68 70 72 72 75
76 81 74 71 67 66 63 63 60 55 53 50 44 50 55 51 50 53 53 55 55 58 60 60 60 59 58 60 61 62 61 62 63 66 67 68 71 73 73 74 74 74 74
73 71 75 75 68 67 65 64 58 55 57 56 50 51 56 56 60 61 61 59 59 62 61 63 63 63 64 65 67 67 65 64 63 64 66 66 67 71 75 74 73 73 77
65 69 71 66 60 60 57 59 58 57 53 56 57 60 59 61 65 69 69 70 68 64 62 64 65 67 70 70 69 68 63 58 58 53 53 56 51 46 42 52 50 47 46
68 68 67 60 54 50 51 52 57 52 52 54 61 62 61 63 65 69 71 71 69 68 68 66 64 65 65 67 68 66 62 56 53 51 41 41 43 40 32 26 33 35 36
70 64 62 58 51 48 48 48 47 54 55 57 61 64 66 66 71 72 69 67 68 66 69 70 68 64 63 63 62 60 58 54 47 46 32 31 30 28 25 25 25 24 24
69 66 60 57 57 54 46 47 50 53 57 60 64 61 64 71 71 69 66 71 66 67 64 65 63 62 58 56 55 51 46 42 42 37 32 31 32 28 26 27 27 28 27
70 66 63 60 56 52 55 57 55 56 58 60 61 60 64 65 67 69 67 69 69 67 66 63 62 61 52 45 42 40 37 38 33 31 31 30 28 27 29 26 25 23 23
64 65 64 62 58 53 54 57 59 61 61 61 58 58 61 65 65 65 64 66 67 62 62 62 58 49 46 43 40 37 36 36 34 33 35 35 34 32 32 29 26 25 24
61 61 62 65 62 60 53 51 54 54 55 55 55 56 59 61 62 60 61 61 60 59 54 51 51 47 41 41 41 41 40 38 37 39 39 37 35 32 31 30 29 30 29
60 58 54 53 51 49 45 43 39 40 45 48 51 55 55 55 53 53 52 51 52 51 50 48 45 42 43 42 40 38 39 41 40 39 38 35 33 30 29 31 31 31 34
58 59 58 54 51 48 43 39 37 35 34 33 29 27 27 32 36 39 42 40 39 40 42 40 39 40 41 39 37 37 37 37 37 39 40 41 43 40 39 42 37 27 25
63 60 58 52 49 47 45 44 43 43 41 34 33 32 28 27 26 27 28 33 35 35 37 38 39 38 37 37 38 39 39 39 38 36 34 35 33 34 36 40 40 43 43
53 54 54 53 52 51 50 51 51 47 46 43 42 41 42 41 43 43 41 40 41 42 42 42 41 43 44 44 44 45 45 43 41 40 41 43 42 43 40 38 43 42 45
52 56 55 52 54 56 60 58 55 54 53 50 50 50 53 54 55 54 54 55 54 52 52 54 55 54 53 54 51 49 47 44 41 37 36 35 37 39 43 44 42 43 41
57 58 57 61 63 64 59 60 62 62 57 58 60 60 60 61 64 64 64 64 65 63 62 59 59 59 57 57 56 55 49 46 46 44 36 33 32 33 34 31 31 31 31
67 66 68 72 70 70 66 67 67 64 63 66 66 67 68 69 73 72 73 69 64 59 53 54 61 59 50 52 51 49 43 42 46 53 52 48 42 39 37 38 39 35 30
73 73 72 70 69 67 67 71 73 73 72 72 72 74 76 75 76 77 72 66 59 51 46 48 51 45 48 49 48 50 49 51 51 51 60 63 61 60 55 54 52 51 52
75 71 71 73 71 72 76 77 78 77 76 77 82 81 80 79 80 69 59 52 50 48 49 48 47 49 50 49 49 51 53 54 55 55 56 54 58 67 72 73 79 79 73
74 76 76 77 80 84 84 80 78 80 82 84 81 83 80 68 49 43 42 43 45 46 47 47 48 48 48 49 50 52 52 51 49 48 49 53 55 56 65 74 80 74 70

GFSGL_prec_cthk_033.txt.gz
RH
74 53 56 51 48 48 44 45 42 39 39 40 41 42 44 45 47 44 45 46 49 61 64 69 72 79 82 84 86 89 92 93 90 91 90 87 81 80 82 85 84 81 80
65 55 59 55 54 55 49 44 44 38 38 43 42 44 45 45 45 43 44 45 46 45 48 51 53 57 58 62 69 74 77 81 85 85 85 84 84 84 79 78 80 80 82
59 58 60 60 63 62 64 56 50 44 39 36 43 40 42 44 44 45 45 45 45 46 47 47 47 49 50 52 56 60 63 67 71 72 71 68 73 79 81 81 77 76 75
60 65 64 67 72 75 70 65 61 52 44 39 39 41 40 44 47 46 47 48 48 47 48 48 49 50 51 52 54 56 59 62 65 70 73 75 76 76 74 72 74 75 73
58 63 61 72 73 77 71 68 63 61 51 45 41 41 44 45 45 48 49 51 52 52 51 51 50 50 51 52 52 54 57 58 62 64 66 69 68 68 71 73 74 75 74
66 60 59 69 75 77 74 71 64 64 58 49 42 43 43 44 46 48 49 50 49 49 50 50 49 48 48 49 49 50 51 52 53 58 61 64 67 70 71 76 78 74 68
71 72 74 85 75 78 77 71 61 58 52 50 45 44 51 47 47 50 52 51 51 53 53 52 51 51 52 51 52 54 55 56 58 62 64 66 66 69 70 71 75 76 77
71 77 84 82 78 75 79 71 67 58 54 53 48 43 52 53 51 54 55 54 56 56 57 56 56 58 57 57 57 57 58 58 61 62 62 64 67 70 72 74 79 79 80
69 73 80 84 78 73 71 64 64 58 55 58 53 52 55 56 58 61 63 61 63 63 62 59 59 61 62 62 63 60 59 59 57 56 55 54 59 64 68 73 77 75 69
61 68 73 76 73 70 60 57 60 57 61 54 54 55 58 58 61 64 66 67 65 65 62 60 62 63 62 61 62 59 57 56 53 51 50 45 38 40 39 43 55 53 53
65 72 75 73 69 64 56 54 56 59 62 53 53 59 59 60 62 65 69 70 68 66 64 63 63 64 62 61 62 61 58 56 54 50 46 44 33 30 26 23 25 31 35
71 76 74 71 66 59 61 61 51 56 55 57 57 59 61 63 57 69 75 70 68 69 66 64 62 62 63 63 59 57 55 53 47 44 42 38 32 31 28 27 27 26 28
78 73 73 73 67 67 60 56 57 58 61 61 61 66 60 58 71 70 70 70 66 70 67 65 64 60 62 57 48 41 41 40 40 39 36 33 33 32 29 28 28 28 30
77 73 72 67 69 64 64 63 58 57 60 64 65 65 67 66 65 63 68 68 72 66 69 64 58 60 55 49 46 43 39 37 38 38 39 39 37 36 36 35 34 33 32
72 67 63 62 62 60 63 66 64 61 56 59 60 59 59 61 63 64 66 65 63 68 60 61 57 53 50 49 43 40 39 38 37 36 38 38 38 37 35 33 33 33 33
64 60 59 59 60 59 58 57 59 57 58 58 56 54 56 58 61 64 64 62 63 55 53 53 50 49 43 38 37 37 36 36 37 39 40 39 38 38 36 36 35 32 33
61 58 58 56 55 57 60 57 55 54 53 53 56 60 61 58 57 55 52 52 49 48 47 49 45 38 37 36 34 34 35 35 36 36 36 37 38 40 40 39 40 40 41
56 56 53 52 49 52 48 43 40 37 35 35 36 37 40 42 42 43 44 44 42 41 42 38 38 38 37 36 36 35 35 37 38 37 38 40 40 38 36 34 34 36 42
55 52 51 49 48 48 48 47 44 41 45 46 44 40 35 33 31 31 33 39 39 40 42 42 40 41 42 45 46 45 45 45 45 43 42 40 41 40 40 40 44 44 40
54 52 50 47 49 53 52 50 49 51 53 54 54 52 51 52 49 45 45 45 46 47 47 51 53 54 56 57 58 56 54 52 49 46 43 40 39 37 36 38 40 41 42
54 50 55 57 54 58 61 61 60 59 62 61 59 59 61 57 59 57 58 59 60 59 60 61 63 64 59 55 58 57 54 48 44 44 43 41 38 35 33 33 33 32 32
60 61 56 63 64 68 67 67 66 70 70 68 66 63 63 66 67 68 69 66 65 64 60 58 57 57 58 51 47 43 42 42 42 42 40 42 47 50 46 42 40 40 40
61 64 72 76 75 75 73 74 73 71 71 70 70 71 71 71 74 76 76 75 72 65 57 51 44 42 43 42 43 45 45 46 48 48 48 47 48 50 56 58 56 55 54
71 77 81 77 76 76 75 75 72 72 73 76 78 78 77 78 79 80 82 80 66 52 47 43 41 44 45 43 42 45 45 46 47 48 48 48 48 48 52 53 56 58 59
78 77 77 78 79 75 74 74 76 79 80 80 78 78 81 82 84 79 66 47 41 40 39 39 42 44 42 41 46 47 47 46 47 48 47 46 45 45 48 52 57 61 61
76 72 71 74 77 77 79 84 86 83 81 81 82 82 77 63 53 51 40 37 37 37 38 39 40 40 41 41 41 43 44 42 40 38 37 38 39 41 45 49 53 54 58